Regional Weather Roundup
Issued by NWS

Home | Current Version | Previous Version | Graphics & Text | Print | Product List | Glossary Off
Versions: 1 2 3 4 5 6 7 8 9 10 11 12 13 14 15 16 17 18 19 20 21 22 23 24 25 26 27 28 29 30 31 32 33 34 35 36 37 38 39 40 41 42 43 44 45 46 47 48 49 50

000
ASUS43 KTOP 011708
RWRKS

WEATHER ROUNDUP FOR KANSAS
NATIONAL WEATHER SERVICE GOODLAND KS
1100 AM CST SUN MAR 01 2015

NOTE:  "FAIR" INDICATES FEW OR NO CLOUDS BELOW 12,000 FEET WITH NO
SIGNIFICANT WEATHER AND/OR OBSTRUCTIONS TO VISIBILITY.

KSZ001>006-013>018-027>032-041>047-011800-
NORTHWEST KANSAS

CITY           SKY/WX    TMP DP  RH WIND       PRES   REMARKS
GOODLAND       CLOUDY    25  16  68 N9        30.27R
HAYS           FAIR      27  14  59 N3        30.37R
HILL CITY      MOSUNNY   28  18  66 N8        30.36R
RUSSELL        MOSUNNY   26  20  77 NW9       30.37R
$$

KSZ061>065-074>080-084>089-011800-
SOUTHWEST KANSAS

CITY           SKY/WX    TMP DP  RH WIND       PRES   REMARKS
DODGE CITY     CLOUDY    25  19  78 N3        30.34R HAZE
ELKHART          N/A     23  19  85 N7          N/A
GARDEN CITY    CLOUDY    24  20  84 N5        30.31S FOG
GREAT BEND     MOSUNNY   27  18  69 CALM      30.38R
LIBERAL        CLOUDY    25  19  80 N7        30.32R
PRATT          CLOUDY    28  19  69 N6        30.38R
$$

KSZ066>073-081>083-090>101-011800-
SOUTHEAST KANSAS

CITY           SKY/WX    TMP DP  RH WIND       PRES   REMARKS
CHANUTE        CLOUDY    27  21  78 N5        30.42R
COFFEYVILLE    CLOUDY    29  24  82 N5        30.43R
HUTCHINSON     CLOUDY    26  19  74 W3        30.40R
MEDICINE LODGE   N/A     30  22  72 VRB5      30.39F
NEWTON         PTSUNNY   25  16  68 NW5       30.41S
PARSONS        CLOUDY    30  22  72 VRB5      30.42S
WICHITA INTL   LGT SNOW  26  22  84 NW7       30.41R FOG
WICHITA JABRA  MIX PCPN  24  21  88 NW6       30.40S FOG
WICHITA MCCONL CLOUDY    27  23  86 NW5       30.41R
WINFIELD       CLOUDY    27  23  85 NW6       30.43R
$$

KSZ007>012-019>026-033>040-048>060-102>105-011800-
NORTHEAST KANSAS

CITY           SKY/WX    TMP DP  RH WIND       PRES   REMARKS
CONCORDIA      MOSUNNY   26  19  74 W7        30.39S
EMPORIA        PTSUNNY   26  19  74 NW6       30.40F
LAWRENCE       SUNNY     28  21  75 W6        30.42R
MANHATTAN      MOSUNNY   29  20  69 VRB6      30.42R
MARYSVILLE     CLOUDY    27  19  74 CALM      30.40R
OLATHE IND     CLOUDY    26  19  74 N5        30.41R
OLATHE EXE     CLOUDY    27  19  72 CALM      30.40R
SALINA         SUNNY     28  20  71 NW7       30.42S
TOPEKA BILLARD MOSUNNY   29  18  63 W5        30.43R
TOPEKA FORBES  PTSUNNY   29  19  66 CALM      30.42R
$$



USA.gov is the U.S. government's official web portal to all federal, state and local government web resources and services.